Vorticity
5 12 5 -0 9 4 -2 3 5 12 17 22 -3 -5 11 5 6 4 5 6 4 5 4 4 2 3 9 7 6 5 2 4 3 5 6 2 3 3 6 9 10 8 7
10 5 5 8 7 10 -1 1 3 3 28 6 21 30 19 13 5 5 7 5 3 3 7 6 6 7 10 9 16 8 6 6 5 4 6 10 4 5 -1 3 -4 -3 2
10 9 11 6 6 5 7 6 0 3 5 11 -6 6 10 10 12 11 9 10 10 10 5 4 0 6 5 5 11 14 8 12 15 18 22 10 8 3 2 7 12 6 11
13 11 11 9 7 8 8 8 8 5 5 5 3 8 5 13 11 11 10 10 9 9 9 9 10 11 9 7 8 7 4 4 3 2 6 21 22 6 8 9 16 13 16
10 9 10 11 9 8 9 8 8 8 7 6 6 7 6 7 5 7 7 7 7 6 6 6 6 4 5 4 4 5 6 7 2 6 3 2 4 7 10 7 7 14 21
9 9 5 8 4 7 6 6 6 6 5 4 4 12 1 4 2 -1 5 6 6 6 5 5 4 5 4 4 5 5 6 4 3 4 5 5 2 -0 -2 -2 2 4 10
8 10 7 7 8 7 6 6 7 6 7 6 5 6 6 18 1 -10 -4 4 9 11 10 9 8 7 6 6 5 5 5 5 5 6 7 8 7 7 6 6 6 6 7
3 3 3 4 5 8 9 5 9 10 10 10 10 8 8 7 6 17 18 10 5 2 5 8 10 10 11 10 9 8 7 6 5 6 6 7 7 7 5 4 4 5 4
7 7 8 7 7 5 4 5 8 5 4 5 4 5 6 4 4 3 3 5 8 9 9 5 5 7 8 9 10 9 9 8 6 6 5 6 8 9 9 6 5 4 7
5 5 5 5 5 5 4 5 5 5 4 5 7 7 7 6 5 6 5 4 3 6 7 7 7 6 6 6 7 9 11 10 8 6 6 5 5 8 9 8 8 8 12
4 4 4 4 4 4 4 4 5 5 5 5 4 4 3 3 -0 -2 1 -1 4 3 0 3 8 8 6 6 6 7 8 9 10 10 10 9 8 6 5 6 7 7 6
4 4 4 4 3 3 3 4 4 5 6 3 1 4 2 1 3 2 7 10 2 4 3 7 9 8 9 7 7 8 7 8 8 8 9 9 8 8 8 7 7 7 6
5 5 5 5 6 6 5 5 5 6 6 7 6 1 5 -0 3 6 11 10 5 11 11 7 9 12 13 11 7 5 7 8 9 9 9 8 7 6 6 6 7 6 6
7 8 7 7 7 8 9 10 10 9 8 8 7 6 6 6 4 3 5 7 7 8 6 5 10 9 7 11 14 13 10 7 7 8 8 7 7 7 8 7 7 7 6
1 6 9 8 6 5 5 4 4 5 4 4 4 5 5 8 11 13 14 14 12 12 7 7 7 12 11 7 12 13 12 12 10 8 7 7 8 7 6 6 5 6 7
12 3 -7 5 6 6 5 8 9 10 11 13 17 20 22 24 21 16 11 7 11 14 18 5 10 7 14 12 11 11 13 12 13 12 11 10 9 9 15 21 24 25 24
5 15 8 2 7 8 10 14 15 18 20 17 16 15 9 3 9 12 11 14 16 18 19 17 17 15 14 13 14 10 11 11 11 11 12 16 21 29 21 18 21 19 18
21 20 11 6 21 12 12 10 21 13 12 8 6 5 4 6 9 10 9 13 19 16 19 19 21 18 12 14 12 10 10 14 21 26 23 22 18 12 12 8 8 4 12
15 13 13 19 14 21 11 16 8 6 7 6 1 4 8 12 15 14 17 16 17 17 16 17 11 15 16 13 9 12 16 14 10 13 13 13 12 10 8 6 6 8 7
12 12 12 15 16 12 11 8 6 8 6 4 7 10 15 17 19 20 17 18 16 15 17 14 17 16 10 9 9 13 9 5 10 3 1 2 6 7 7 10 11 6 13
13 11 17 11 10 12 8 8 8 4 6 10 13 16 19 23 19 19 17 19 16 17 17 18 14 12 10 8 16 17 13 5 2 3 5 8 15 9 5 4 7 5 7
-0 13 7 10 10 7 10 7 6 7 12 13 15 18 19 20 18 16 17 16 17 16 16 12 11 10 8 6 5 5 11 18 17 16 13 11 11 13 10 8 6 10 2
-2 12 14 9 11 8 5 7 11 12 13 15 17 20 19 16 16 18 17 16 15 13 12 10 10 9 7 5 4 4 9 11 9 13 10 8 9 10 10 11 11 9 11
16 20 14 9 9 6 9 13 11 12 16 17 21 19 15 15 17 15 14 13 12 12 10 9 6 5 6 6 5 7 13 10 9 9 9 9 9 10 10 11 12 13 13
18 14 6 8 7 9 11 10 12 16 18 18 14 12 18 15 10 7 8 10 10 8 8 7 6 6 12 11 12 9 13 17 14 12 12 11 10 10 12 11 9 7 6
14 5 9 8 10 11 11 10 15 18 17 12 11 23 14 11 13 12 11 12 10 9 10 12 11 8 11 11 8 14 15 10 8 9 9 10 10 7 3 3 3 3 5
Height
5775 5776 5777 5778 5779 5780 5781 5781 5781 5781 5780 5779 5781 5784 5787 5791 5794 5795 5797 5799 5800 5801 5802 5803 5804 5804 5805 5806 5807 5809 5810 5810 5811 5812 5812 5813 5814 5814 5816 5816 5817 5817 5817
5770 5771 5771 5772 5773 5775 5776 5777 5777 5776 5777 5775 5776 5779 5782 5785 5788 5789 5790 5792 5793 5794 5796 5797 5798 5798 5798 5799 5799 5801 5802 5803 5804 5804 5805 5805 5806 5806 5808 5809 5810 5810 5810
5763 5764 5765 5768 5769 5769 5770 5771 5771 5772 5772 5772 5774 5776 5778 5780 5782 5783 5784 5785 5786 5787 5789 5791 5791 5792 5792 5792 5792 5793 5794 5794 5795 5796 5796 5797 5797 5796 5798 5799 5800 5801 5802
5758 5759 5760 5762 5763 5764 5764 5765 5766 5767 5768 5769 5771 5772 5773 5775 5776 5778 5778 5779 5780 5781 5782 5782 5784 5784 5785 5785 5786 5787 5787 5787 5788 5788 5789 5789 5789 5788 5788 5790 5791 5791 5791
5753 5754 5755 5756 5757 5759 5759 5760 5761 5763 5764 5765 5765 5766 5768 5770 5771 5772 5772 5773 5774 5774 5774 5775 5777 5777 5777 5778 5779 5779 5780 5779 5781 5781 5781 5782 5782 5782 5780 5781 5783 5783 5783
5748 5749 5750 5751 5753 5753 5754 5755 5757 5758 5759 5760 5760 5761 5763 5764 5765 5765 5765 5766 5766 5766 5767 5768 5769 5769 5769 5769 5771 5771 5772 5772 5774 5773 5774 5774 5774 5774 5773 5773 5775 5776 5776
5742 5743 5745 5746 5747 5748 5749 5750 5751 5752 5753 5753 5753 5754 5755 5756 5756 5757 5758 5758 5758 5759 5759 5760 5760 5760 5760 5760 5761 5762 5762 5763 5763 5763 5764 5764 5764 5765 5763 5764 5765 5766 5768
5737 5738 5739 5740 5741 5742 5742 5743 5744 5745 5746 5747 5747 5747 5747 5748 5748 5749 5749 5749 5749 5749 5750 5751 5751 5751 5750 5750 5751 5751 5752 5752 5753 5753 5754 5755 5754 5755 5754 5754 5754 5756 5757
5730 5731 5733 5733 5734 5735 5736 5737 5738 5738 5739 5740 5740 5740 5740 5740 5740 5740 5741 5740 5740 5740 5740 5740 5740 5740 5740 5740 5740 5740 5741 5742 5742 5743 5743 5745 5744 5744 5744 5744 5744 5745 5746
5723 5725 5726 5727 5727 5728 5729 5730 5731 5731 5731 5732 5733 5733 5732 5733 5733 5734 5731 5731 5731 5731 5730 5730 5729 5729 5730 5730 5729 5729 5730 5730 5730 5731 5731 5732 5733 5733 5733 5733 5733 5735 5737
5715 5716 5717 5718 5719 5720 5720 5721 5721 5722 5723 5723 5723 5723 5724 5725 5724 5725 5725 5721 5719 5719 5719 5719 5718 5718 5718 5718 5718 5718 5718 5719 5718 5718 5719 5720 5720 5720 5721 5721 5721 5722 5723
5706 5707 5708 5709 5710 5711 5711 5712 5712 5713 5713 5714 5714 5713 5713 5712 5712 5712 5713 5713 5712 5708 5706 5705 5705 5705 5706 5706 5706 5707 5707 5706 5706 5707 5707 5707 5707 5707 5707 5708 5708 5709 5710
5697 5698 5698 5699 5700 5701 5701 5702 5702 5702 5702 5702 5702 5702 5701 5701 5700 5698 5698 5698 5699 5699 5696 5693 5691 5693 5693 5693 5694 5694 5695 5694 5694 5695 5694 5694 5694 5694 5694 5695 5695 5695 5695
5686 5687 5688 5689 5690 5690 5691 5690 5691 5691 5690 5690 5689 5689 5688 5687 5686 5685 5685 5684 5685 5685 5685 5684 5680 5679 5680 5681 5681 5681 5681 5682 5681 5681 5681 5681 5680 5680 5680 5680 5681 5680 5680
5675 5676 5677 5678 5679 5679 5679 5679 5679 5678 5677 5676 5675 5674 5674 5673 5672 5671 5670 5669 5668 5669 5670 5669 5668 5667 5666 5667 5668 5668 5668 5668 5668 5667 5667 5667 5667 5667 5666 5665 5664 5664 5663
5664 5665 5666 5667 5667 5667 5667 5667 5666 5665 5664 5663 5662 5661 5660 5659 5658 5657 5656 5655 5653 5652 5653 5654 5652 5653 5655 5655 5655 5655 5654 5654 5654 5653 5653 5653 5653 5652 5651 5650 5649 5647 5646
5653 5654 5655 5655 5656 5656 5656 5655 5654 5653 5652 5651 5650 5650 5648 5647 5645 5643 5641 5639 5637 5636 5637 5638 5637 5638 5641 5642 5643 5642 5641 5641 5640 5640 5639 5638 5638 5637 5635 5635 5634 5632 5630
5641 5641 5643 5644 5644 5645 5644 5643 5642 5642 5641 5639 5638 5636 5635 5632 5630 5627 5625 5624 5623 5622 5622 5624 5623 5625 5627 5629 5630 5630 5630 5628 5628 5628 5627 5626 5626 5624 5623 5623 5621 5619 5618
5630 5631 5632 5633 5632 5633 5633 5632 5632 5631 5629 5627 5624 5623 5620 5617 5614 5612 5611 5610 5609 5609 5610 5611 5612 5614 5616 5617 5619 5619 5619 5619 5618 5618 5617 5616 5615 5614 5612 5611 5610 5608 5607
5621 5622 5622 5623 5622 5623 5623 5622 5621 5620 5617 5614 5610 5607 5603 5600 5599 5599 5597 5597 5597 5598 5600 5601 5602 5604 5606 5608 5609 5610 5610 5609 5609 5608 5608 5607 5605 5604 5602 5599 5598 5596 5593
5613 5614 5614 5614 5614 5614 5613 5612 5611 5608 5604 5599 5596 5593 5590 5588 5587 5586 5586 5586 5587 5589 5590 5592 5594 5596 5598 5599 5600 5600 5600 5600 5600 5599 5598 5597 5595 5592 5590 5588 5586 5584 5581
5606 5606 5606 5606 5605 5604 5603 5602 5599 5595 5590 5587 5584 5581 5579 5578 5577 5577 5577 5578 5580 5581 5583 5585 5587 5588 5590 5591 5592 5592 5591 5590 5590 5589 5587 5586 5583 5581 5580 5578 5576 5574 5572
5598 5598 5598 5597 5596 5595 5593 5591 5587 5583 5580 5576 5574 5572 5571 5571 5570 5570 5571 5572 5573 5575 5576 5578 5580 5580 5581 5582 5583 5583 5581 5581 5579 5578 5577 5574 5573 5572 5570 5569 5566 5563 5560
5590 5590 5589 5588 5588 5586 5583 5580 5576 5572 5570 5567 5566 5566 5565 5565 5565 5565 5566 5567 5568 5569 5570 5572 5572 5573 5573 5574 5574 5573 5572 5570 5569 5568 5566 5564 5563 5561 5560 5558 5555 5552 5549
5582 5581 5581 5581 5579 5577 5573 5569 5567 5564 5562 5561 5561 5561 5560 5561 5561 5561 5561 5562 5563 5563 5564 5564 5564 5565 5565 5565 5564 5563 5562 5560 5559 5558 5557 5556 5554 5553 5550 5547 5544 5542 5539
5574 5574 5573 5572 5570 5567 5564 5562 5559 5557 5556 5556 5556 5555 5556 5557 5557 5557 5557 5557 5557 5557 5557 5557 5557 5557 5557 5556 5555 5554 5553 5552 5550 5549 5549 5548 5545 5543 5540 5537 5534 5531 5528